FLOCK 2K-38 (42868 NORAD) Tracking and Keplerian Element Data

This shows tracking and keplerian element data for the satellite.

Feedback or suggestion? Click here.




ElementValue
Catalog42868
NameFLOCK 2K-38
Epoch Orbit3284
Epoch Day45.76824402
Epoch Year2018
RAAN308.5629
Inclination96.9928
Eccentricity0.0010516
Argument of Perigee185.0276
Mean Anonmoly175.0864
Mean Motion15.35677795
Decay Rate7.596E-05
L11 42868U 17042AV 18045.76824402 .00007596 00000-0 22072-3 0 9996
L22 42868 96.9928 308.5629 0010516 185.0276 175.0864 15.35677795 32841

Live tracking and technical data element details for FLOCK 2K-38 (NORAD 42868). FLOCK 2K-38 can be tracked NOW for your location showing map with azimuth and elevation plus other details from your city location.

Track the satellite on the map from your city or location and see movement details for azimuth, elevation, latitude, longitude, range, height, and movement on the map or in text.







IsCatalogInMostPopularTable: catalog: 42868, numindb: 64
Update: records affected: 1



GetName: 42868 FLOCK 2K-38

Hit Count: updated at: Fri, 20 Jul 2018 07:07:10 GMT